"Pseudo-MPEC" for P11cite
Created 2021 Jan 23 1:07:13 UT using Find_Orb
Click here for an explanation of pseudo-MPECs
Astrometry: P11cite C2020 12 24p?'8a7i?j)Z42)u`e2lu-0IGNYOKl7u1?3r0Wksu5aar7!]InY1X
F51 P11cite C2020 12 24\Xao-2by-MrtF(Qk\Kfq2NjI)'Mw`^0vpqF$].WD[O[WpMmumeau
F51 P11cite C2021 01 12.20272 03 26 50.60 -22 31 17.4 ~1JIM 19.7 GVNEOCP703 P11cite C2021 01 12.21351 03 26 50.62 -22 31 09.8 ~1JIM 19.5 GVNEOCP703 P11cite C2021 01 12.21891 03 26 50.76 -22 31 04.5 ~1JIM 19.4 GVNEOCP703 P11cite C2021 01 17/e%68VQPf'F7M$N55rqd7,uaYi\'.w=b[-T8^*X@+pmcD]yqTc.:
F51 P11cite C2021 01 179oN\+Uj(1akmnE+-*c'53NR21Q)?o7Z.`.jkc4stuACL*Hje7#:i
F51 P11cite C2021 01 17iKurEjc%xIgBn*VBX+`(XLgRqtl;cr66qyv$#=KGVm%;.%Cf,0GH
F51 P11cite C2021 01 17=vc3:[IPROO(-,E-Xl=Kr23QV]@G`]?\!Sv\Li,VKmbK!@qrFC+Y
F51 P11cite |C2021 01 18u;3X54MTUNa+d=2-IhY=**r%!D%y)8t
AstrometryDL,4`KanZ5U
807 P11cite |C2021 01 18eSswav?@9$$e)Y0bX9,8L9Lgg[x7=/dop`hjTlH?O()7:ClG5`a+
807 P11cite |C2021 01 18XNAV*XMmvBd\eT6WW0a_9RS6DT%=nfLnC\R!0Fw,d4qr$)O4Dh(P
807 P11cite C2021 01 18.07228903 28 08.05 -20 40 26.4 ~1I2M 20.12GVNEOCPI52 P11cite C2021 01 18.07521603 28 08.14 -20 40 22.8 ~1I2M 19.63GVNEOCPI52 P11cite C2021 01 18.08348003 28 08.30 -20 40 13.0 ~1I2M 19.59GVNEOCPI52 P11cite C2021 01 18.09064403 28 08.36 -20 40 04.8 ~1I2M 19.63GVNEOCPI52 P11cite KC2021 01 18Bruvx8E:qg8T?9?k$)YP]3QLW@TaL\l$N7CC/0[=)N5Is9,RCb6V
H36 P11cite KC2021 01 18:bg4pOPvev!:4x7wbr:k)
redacted;ntB!L@cvW$EtmOKXLLL`$=
H36 P11cite KC2021 01 18]f5QWjZdV[jvx-MV1kU`8+1J17Qq;n.'^98Ns8)y(Zx5-.!R=;DH
X02 P11cite KC2021 01 18LnY=y*Xnl9R+QXJrbITB!D)cE5'`Y)f'=)'!;OnT'y_aX/3t3gp4
X02 P11cite KC2021 01 18eSR0hYJ!j\YM=[hl)vM\\4:kGh$i^mTkE?3XC4thK.;hC*[LZ..w
H36 P11cite ^C2021 01 18.22787003 28 10.724-20 37 25.51 ~1IEM 20.37GVNEOCP568 P11cite ^C2021 01 18.22908103 28 10.743-20 37 24.07 ~1IEM 20.31GVNEOCP568 P11cite ^C2021 01 18.23029403 28 10.764-20 37 22.66 ~1IEM 20.33GVNEOCP568 P11cite *C2021 01 18#.xE2g*Y
clickvO$oc\8wWH?vkbLh:ZvW1Se0yQw]1M2iBuL5M]o
E10 P11cite *C2021 01 18Ok@KF,f'\CljbimT$'lH$ht9o1bx3Ts+%?7kMhm=Po`xI@V+3$/U
E10 P11cite *C2021 01 18x$/dvu'x;rCo
here2bqX2:[RqfeuO@NQD7p!4hvo@kBdaBP#mF5%
E10 P11cite 1C2021 01 18aqX27Cag5r'B=;1nd+9,oT(EXvlm!-YsVWZwOJIEQF=F1e0$q23y
Q62 P11cite 1C2021 01 181kOW8Q1d7AuLr$PAJ'Ag'RRko0b[ClhE$'Pv8;h3j:+oDL?Kn`,l
Q62 P11cite 1C2021 01 18wo:PF0w4/Uo`Qa!?tk3%:W,3\TsBTe@JB4Thx+V-:Lml3HebnSg.
Q62 P11cite 9C2021 01 180sBG'oi\5c`WQnEO
forU7:'*`o-W!YxcCL_
explanationjSU45j
G40 P11cite 9C2021 01 18wOGODFXD!o8]TS,;Ycl;%ige4utHdy:e(^ea\@0t#'/Y:LO,h/P/
G40 Station data: (568) Mauna Kea (N19.826116 W155.472200) US/Hawaii. (703) Catalina Sky Survey (N32.417006 W110.732640) US/Arizona. Observers T. A. Pruyne, B. M. Africano, E. J. Christensen, G. A. Farneth, D. C. Fuls, A. R. Gibbs, A. D. Grauer, H. Gröller, J. A. Johnson, R. A. Kowalski, S. M. Larson, G. J. Leonard, D. Rankin, R. L. Seaman, F. C. Shelly. 0.68 m Schmidt + 10K CCD. (807) Cerro Tololo Observatory, La Serena (S30.169136 W70.805900) Chile. (E10) Siding Spring-Faulkes Telescope South (S31.273173 E149.070280) Australia/NSW. (F51) Pan-STARRS 1, Haleakala (N20.707235 W156.255910) US/Hawaii. Observers N. Primak, A. Schultz, S. Watters, J. Thiel, T. Goggia. Measurer PS1 Science Consortium. 1.8-m Ritchey-Chrétien + CCD. (G40) Slooh.com Canary Islands Observatory (N28.299720 W16.508260) Canary Islands (Spain). Observers G. Gašparović, Y. Chen. 0.43-m f/6.8 Corrected Dall-Kirkham + CCD. (H36) Sandlot Observatory, Scranton (N38.797693 W95.706400) US/Kansas. Observer G. Hug. 0.56-m reflector + CCD. (I52) Steward Observatory, Mt. Lemmon Station (N32.442547 W110.788920) US/Arizona. Observers T. A. Pruyne, B. M. Africano, E. J. Christensen, G. A. Farneth, D. C. Fuls, A. R. Gibbs, A. D. Grauer, H. Gröller, J. A. Johnson, R. A. Kowalski, S. M. Larson, G. J. Leonard, D. Rankin, R. L. Seaman, F. C. Shelly. 1.0-m reflector + CCD. (Q62) iTelescope Observatory, Siding Spring (S31.273289 E149.064420) Australia/NSW. 0.50-m f/6.8 astrograph + CCD + focal reducer, 0.70-m f/6.6 astrograph + CCD. (X02) Telescope Live, El Sauce (S30.470668 W70.764830) Chile. Orbital elements: P11cite Perihelion 2021 May 4.099375 +/- 0.0289428 TT = 2:23:06 (JD 2459338.599375) Epoch 2021 Jan 18.0 TT = JDT 2459232.5 AutoNEOCP M 359.98855696 +/- 0.0061543 (J2000 ecliptic) n 0.00010785 +/- 6.30522e-5 Peri. 334.86975 +/- 0.0340246 a 437.103104 +/- 179.487 Node 120.42993 +/- 0.0295777 e 0.9942352 +/- 0.00227018 Incl. 38.14081 +/- 0.0109060 P9138.52 H 15.1 G 0.15 U 6.2 q 2.51980299 +/- 0.000906648 Q 871.686405 +/- 529.761 From 32 observations 2020 Dec. 24-2021 Jan. 18; mean residual 0".60
Residuals in arcseconds: 201224 F51 .10- .07- 210118 807 .12+ .05+ 210118 568 .27- .08- 201224 F51 .10+ .05+ 210118 I52 .13- .35- 210118 568 .25- .08- 210112 703 .20+ 3.3+ 210118 I52 .48+ .13- 210118 E10 .26- .21+ 210112 703 .67- 1.1- 210118 I52 .86+ .12+ 210118 E10 .45- .21+ 210112 703 .70+ 1.8- 210118 I52 .09+ .04+ 210118 E10 .36- .04+ 210117 F51 .51- .46- 210118 H36 .39+ .25+ 210118 Q62 .27- .71- 210117 F51 .28- .28- 210118 H36 .72+ .32+ 210118 Q62 .22- .34- 210117 F51 .27- .33- 210118 X02 .10- .04+ 210118 Q62 .30- .46- 210117 F51 .49- .32- 210118 X02 .03+ .16+ 210118 G40 .35+ .58+ 210118 807 .24- .14- 210118 H36 .89+ .02- 210118 G40 .38+ .74+ 210118 807 .02+ .21+ 210118 568 .27- .12- Ephemerides (geocentric): Date (UTC) HH RA Dec delta r elong mag " sig PA ---- -- -- -- ------------- ----------- ------ ------ ----- --- ---- --- 2021 01 23 01 03 29 51.910 -19 03 09.18 2.4125 2.7431 98.9 20.2 .550 91 2021 01 23 02 03 29 52.928 -19 02 19.63 2.4127 2.7429 98.9 20.2 .555 91 2021 01 23 03 03 29 53.948 -19 01 30.07 2.4129 2.7427 98.9 20.2 .560 91 2021 01 23 04 03 29 54.970 -19 00 40.50 2.4131 2.7425 98.8 20.2 .566 91 2021 01 23 05 03 29 55.995 -18 59 50.93 2.4133 2.7424 98.8 20.2 .571 91 2021 01 23 06 03 29 57.023 -18 59 01.34 2.4135 2.7422 98.8 20.2 .576 92 2021 01 23 07 03 29 58.052 -18 58 11.74 2.4137 2.7420 98.8 20.2 .581 92 2021 01 23 08 03 29 59.084 -18 57 22.14 2.4139 2.7419 98.7 20.2 .586 92 2021 01 23 09 03 30 00.119 -18 56 32.52 2.4141 2.7417 98.7 20.2 .591 92 2021 01 23 10 03 30 01.156 -18 55 42.90 2.4143 2.7415 98.7 20.2 .596 92 2021 01 23 11 03 30 02.195 -18 54 53.26 2.4145 2.7413 98.7 20.2 .601 92 2021 01 23 12 03 30 03.237 -18 54 03.62 2.4147 2.7412 98.6 20.2 .607 92 2021 01 23 13 03 30 04.281 -18 53 13.97 2.4149 2.7410 98.6 20.2 .612 92 2021 01 23 14 03 30 05.328 -18 52 24.31 2.4151 2.7408 98.6 20.2 .617 92 2021 01 23 15 03 30 06.377 -18 51 34.63 2.4153 2.7406 98.6 20.2 .622 92 2021 01 23 16 03 30 07.428 -18 50 44.95 2.4155 2.7405 98.5 20.2 .627 92 2021 01 23 17 03 30 08.482 -18 49 55.27 2.4157 2.7403 98.5 20.2 .633 92 2021 01 23 18 03 30 09.538 -18 49 05.57 2.4159 2.7401 98.5 20.2 .638 92 2021 01 23 19 03 30 10.596 -18 48 15.86 2.4161 2.7399 98.5 20.2 .643 92 2021 01 23 20 03 30 11.657 -18 47 26.14 2.4164 2.7398 98.4 20.2 .648 92 2021 01 23 21 03 30 12.720 -18 46 36.42 2.4166 2.7396 98.4 20.2 .654 92 2021 01 23 22 03 30 13.786 -18 45 46.68 2.4168 2.7394 98.4 20.2 .659 92 2021 01 23 23 03 30 14.854 -18 44 56.94 2.4170 2.7393 98.4 20.2 .664 92 2021 01 24 00 03 30 15.925 -18 44 07.19 2.4172 2.7391 98.3 20.2 .670 92 2021 01 24 01 03 30 16.998 -18 43 17.43 2.4174 2.7389 98.3 20.2 .675 92 2021 01 24 02 03 30 18.073 -18 42 27.66 2.4176 2.7387 98.3 20.2 .680 92 2021 01 24 03 03 30 19.150 -18 41 37.88 2.4178 2.7386 98.3 20.2 .686 92 2021 01 24 04 03 30 20.230 -18 40 48.09 2.4180 2.7384 98.3 20.2 .691 92 2021 01 24 05 03 30 21.313 -18 39 58.29 2.4182 2.7382 98.2 20.2 .696 92 2021 01 24 06 03 30 22.398 -18 39 08.49 2.4184 2.7380 98.2 20.2 .702 92 2021 01 24 07 03 30 23.485 -18 38 18.67 2.4186 2.7379 98.2 20.2 .707 92 2021 01 24 08 03 30 24.574 -18 37 28.85 2.4188 2.7377 98.2 20.2 .712 92 2021 01 24 09 03 30 25.666 -18 36 39.02 2.4190 2.7375 98.1 20.2 .718 92 2021 01 24 10 03 30 26.761 -18 35 49.18 2.4192 2.7374 98.1 20.2 .723 92 2021 01 24 11 03 30 27.858 -18 34 59.33 2.4194 2.7372 98.1 20.2 .729 92 2021 01 24 12 03 30 28.957 -18 34 09.47 2.4197 2.7370 98.1 20.2 .734 92 2021 01 24 13 03 30 30.058 -18 33 19.60 2.4199 2.7368 98.0 20.2 .739 92 2021 01 24 14 03 30 31.162 -18 32 29.73 2.4201 2.7367 98.0 20.2 .745 92 2021 01 24 15 03 30 32.268 -18 31 39.85 2.4203 2.7365 98.0 20.2 .750 92 2021 01 24 16 03 30 33.377 -18 30 49.95 2.4205 2.7363 98.0 20.2 .756 92 2021 01 24 17 03 30 34.488 -18 30 00.05 2.4207 2.7362 97.9 20.2 .761 92 2021 01 24 18 03 30 35.601 -18 29 10.14 2.4209 2.7360 97.9 20.2 .767 92 2021 01 24 19 03 30 36.717 -18 28 20.22 2.4211 2.7358 97.9 20.2 .772 92 2021 01 24 20 03 30 37.835 -18 27 30.30 2.4213 2.7356 97.9 20.2 .778 92 2021 01 24 21 03 30 38.956 -18 26 40.36 2.4215 2.7355 97.8 20.2 .783 92 2021 01 24 22 03 30 40.079 -18 25 50.42 2.4217 2.7353 97.8 20.2 .789 92 2021 01 24 23 03 30 41.204 -18 25 00.47 2.4219 2.7351 97.8 20.2 .794 92 2021 01 25 00 03 30 42.331 -18 24 10.51 2.4222 2.7349 97.8 20.2 .800 92